owner,sensor,date,latitude,longitude,air_pressure(mBar),qcFlag 
LUMCON,ioos:station:LUMCON:101:1,2015-12-01T05:00:00Z,29.2533,-90.6633,1014.0,1111122 
LUMCON,ioos:station:LUMCON:101:1,2015-12-01T05:15:00Z,29.2533,-90.6633,1014.0,1111122 
LUMCON,ioos:station:LUMCON:101:1,2015-12-01T05:30:00Z,29.2533,-90.6633,1015.0,1111122 
LUMCON,ioos:station:LUMCON:101:1,2015-12-01T05:45:00Z,29.2533,-90.6633,1015.0,1111122 
LUMCON,ioos:station:LUMCON:101:1,2015-12-01T06:00:00Z,29.2533,-90.6633,1015.0,1111122 
LUMCON,ioos:station:LUMCON:101:1,2015-12-01T06:15:00Z,29.2533,-90.6633,1015.0,1111122 
LUMCON,ioos:station:LUMCON:101:1,2015-12-01T06:30:00Z,29.2533,-90.6633,1014.0,1111122 
LUMCON,ioos:station:LUMCON:101:1,2015-12-01T06:45:00Z,29.2533,-90.6633,1014.0,1111122 
LUMCON,ioos:station:LUMCON:101:1,2015-12-01T07:00:00Z,29.2533,-90.6633,1014.0,1111122 
LUMCON,ioos:station:LUMCON:101:1,2015-12-01T07:15:00Z,29.2533,-90.6633,1014.0,1111122 
LUMCON,ioos:station:LUMCON:101:1,2015-12-01T07:30:00Z,29.2533,-90.6633,1014.0,1111122 
LUMCON,ioos:station:LUMCON:101:1,2015-12-01T07:45:00Z,29.2533,-90.6633,1014.0,1111122 
LUMCON,ioos:station:LUMCON:101:1,2015-12-01T08:00:00Z,29.2533,-90.6633,1014.0,1111122 
LUMCON,ioos:station:LUMCON:101:1,2015-12-01T08:15:00Z,29.2533,-90.6633,1014.0,1111122 
LUMCON,ioos:station:LUMCON:101:1,2015-12-01T08:30:00Z,29.2533,-90.6633,1014.0,1111122 
LUMCON,ioos:station:LUMCON:101:1,2015-12-01T08:45:00Z,29.2533,-90.6633,1014.0,1111122 
LUMCON,ioos:station:LUMCON:101:1,2015-12-01T09:00:00Z,29.2533,-90.6633,1014.0,1111122 
LUMCON,ioos:station:LUMCON:101:1,2015-12-01T09:15:00Z,29.2533,-90.6633,1014.0,1111122 
LUMCON,ioos:station:LUMCON:101:1,2015-12-01T09:30:00Z,29.2533,-90.6633,1014.0,1111122 
LUMCON,ioos:station:LUMCON:101:1,2015-12-01T09:45:00Z,29.2533,-90.6633,1014.0,1111122 
LUMCON,ioos:station:LUMCON:101:1,2015-12-01T10:00:00Z,29.2533,-90.6633,1014.0,1111122 
LUMCON,ioos:station:LUMCON:101:1,2015-12-01T10:15:00Z,29.2533,-90.6633,1014.0,1111122 
LUMCON,ioos:station:LUMCON:101:1,2015-12-01T10:30:00Z,29.2533,-90.6633,1014.0,1111122 
LUMCON,ioos:station:LUMCON:101:1,2015-12-01T10:45:00Z,29.2533,-90.6633,1014.0,1111122 
LUMCON,ioos:station:LUMCON:101:1,2015-12-01T11:00:00Z,29.2533,-90.6633,1014.0,1111122 
LUMCON,ioos:station:LUMCON:101:1,2015-12-01T11:15:00Z,29.2533,-90.6633,1014.0,1111122 
LUMCON,ioos:station:LUMCON:101:1,2015-12-01T11:30:00Z,29.2533,-90.6633,1014.0,1111122 
LUMCON,ioos:station:LUMCON:101:1,2015-12-01T11:45:00Z,29.2533,-90.6633,1014.0,1111122 
LUMCON,ioos:station:LUMCON:101:1,2015-12-01T12:00:00Z,29.2533,-90.6633,1014.0,1111122 
LUMCON,ioos:station:LUMCON:101:1,2015-12-01T12:15:00Z,29.2533,-90.6633,1014.0,1111122 
LUMCON,ioos:station:LUMCON:101:1,2015-12-01T12:30:00Z,29.2533,-90.6633,1014.0,1111122 
LUMCON,ioos:station:LUMCON:101:1,2015-12-01T12:45:00Z,29.2533,-90.6633,1014.0,1111122 
LUMCON,ioos:station:LUMCON:101:1,2015-12-01T13:00:00Z,29.2533,-90.6633,1014.0,1111122 
LUMCON,ioos:station:LUMCON:101:1,2015-12-01T13:15:00Z,29.2533,-90.6633,1014.0,1111122 
LUMCON,ioos:station:LUMCON:101:1,2015-12-01T13:30:00Z,29.2533,-90.6633,1014.0,1111122 
LUMCON,ioos:station:LUMCON:101:1,2015-12-01T13:45:00Z,29.2533,-90.6633,1014.0,1111122 
LUMCON,ioos:station:LUMCON:101:1,2015-12-01T14:00:00Z,29.2533,-90.6633,1014.0,1111122 
LUMCON,ioos:station:LUMCON:101:1,2015-12-01T14:15:00Z,29.2533,-90.6633,1014.0,1111122 
LUMCON,ioos:station:LUMCON:101:1,2015-12-01T14:30:00Z,29.2533,-90.6633,1014.0,1111122 
LUMCON,ioos:station:LUMCON:101:1,2015-12-01T14:45:00Z,29.2533,-90.6633,1014.0,1111122 
LUMCON,ioos:station:LUMCON:101:1,2015-12-01T15:00:00Z,29.2533,-90.6633,1014.0,1111122 
LUMCON,ioos:station:LUMCON:101:1,2015-12-01T15:15:00Z,29.2533,-90.6633,1014.0,1111122 
LUMCON,ioos:station:LUMCON:101:1,2015-12-01T15:30:00Z,29.2533,-90.6633,1014.0,1111122 
LUMCON,ioos:station:LUMCON:101:1,2015-12-01T15:45:00Z,29.2533,-90.6633,1014.0,1111122 
LUMCON,ioos:station:LUMCON:101:1,2015-12-01T16:00:00Z,29.2533,-90.6633,1014.0,1111122 
LUMCON,ioos:station:LUMCON:101:1,2015-12-01T16:15:00Z,29.2533,-90.6633,1014.0,1111122 
LUMCON,ioos:station:LUMCON:101:1,2015-12-01T16:30:00Z,29.2533,-90.6633,1013.0,1111122 
LUMCON,ioos:station:LUMCON:101:1,2015-12-01T16:45:00Z,29.2533,-90.6633,1013.0,1111122 
LUMCON,ioos:station:LUMCON:101:1,2015-12-01T17:00:00Z,29.2533,-90.6633,1013.0,1111122 
LUMCON,ioos:station:LUMCON:101:1,2015-12-01T17:15:00Z,29.2533,-90.6633,1013.0,1111122 
LUMCON,ioos:station:LUMCON:101:1,2015-12-01T17:30:00Z,29.2533,-90.6633,1012.0,1111122 
LUMCON,ioos:station:LUMCON:101:1,2015-12-01T17:45:00Z,29.2533,-90.6633,1012.0,1111122 
LUMCON,ioos:station:LUMCON:101:1,2015-12-01T18:00:00Z,29.2533,-90.6633,1012.0,1111122 
LUMCON,ioos:station:LUMCON:101:1,2015-12-01T18:15:00Z,29.2533,-90.6633,1012.0,1111122 
LUMCON,ioos:station:LUMCON:101:1,2015-12-01T18:30:00Z,29.2533,-90.6633,1012.0,1111122 
LUMCON,ioos:station:LUMCON:101:1,2015-12-01T18:45:00Z,29.2533,-90.6633,1011.0,1111122 
LUMCON,ioos:station:LUMCON:101:1,2015-12-01T19:00:00Z,29.2533,-90.6633,1011.0,1111122 
LUMCON,ioos:station:LUMCON:101:1,2015-12-01T19:15:00Z,29.2533,-90.6633,1011.0,1111122 
LUMCON,ioos:station:LUMCON:101:1,2015-12-01T19:30:00Z,29.2533,-90.6633,1011.0,1111122 
LUMCON,ioos:station:LUMCON:101:1,2015-12-01T19:45:00Z,29.2533,-90.6633,1011.0,1111122 
LUMCON,ioos:station:LUMCON:101:1,2015-12-01T20:00:00Z,29.2533,-90.6633,1011.0,1111122 
LUMCON,ioos:station:LUMCON:101:1,2015-12-01T20:15:00Z,29.2533,-90.6633,1011.0,1111122 
LUMCON,ioos:station:LUMCON:101:1,2015-12-01T20:30:00Z,29.2533,-90.6633,1011.0,1111122 
LUMCON,ioos:station:LUMCON:101:1,2015-12-01T20:45:00Z,29.2533,-90.6633,1011.0,1111122 
LUMCON,ioos:station:LUMCON:101:1,2015-12-01T21:00:00Z,29.2533,-90.6633,1011.0,1111122 
LUMCON,ioos:station:LUMCON:101:1,2015-12-01T21:15:00Z,29.2533,-90.6633,1011.0,1111122 
LUMCON,ioos:station:LUMCON:101:1,2015-12-01T21:30:00Z,29.2533,-90.6633,1011.0,1111122 
LUMCON,ioos:station:LUMCON:101:1,2015-12-01T21:45:00Z,29.2533,-90.6633,1011.0,1111122 
LUMCON,ioos:station:LUMCON:101:1,2015-12-01T22:00:00Z,29.2533,-90.6633,1012.0,1111122 
LUMCON,ioos:station:LUMCON:101:1,2015-12-01T22:15:00Z,29.2533,-90.6633,1012.0,1111122 
LUMCON,ioos:station:LUMCON:101:1,2015-12-01T22:30:00Z,29.2533,-90.6633,1012.0,1111122 
LUMCON,ioos:station:LUMCON:101:1,2015-12-01T22:45:00Z,29.2533,-90.6633,1012.0,1111122 
LUMCON,ioos:station:LUMCON:101:1,2015-12-01T23:00:00Z,29.2533,-90.6633,1012.0,1111122 
LUMCON,ioos:station:LUMCON:101:1,2015-12-01T23:15:00Z,29.2533,-90.6633,1012.0,1111122 
LUMCON,ioos:station:LUMCON:101:1,2015-12-01T23:30:00Z,29.2533,-90.6633,1012.0,1111122 
LUMCON,ioos:station:LUMCON:101:1,2015-12-01T23:45:00Z,29.2533,-90.6633,1012.0,1111122 
LUMCON,ioos:station:LUMCON:101:1,2015-12-02T05:00:00Z,29.2533,-90.6633,1012.0,1111122 
LUMCON,ioos:station:LUMCON:101:1,2015-12-02T05:15:00Z,29.2533,-90.6633,1012.0,1111122 
LUMCON,ioos:station:LUMCON:101:1,2015-12-02T05:30:00Z,29.2533,-90.6633,1012.0,1111122 
LUMCON,ioos:station:LUMCON:101:1,2015-12-02T05:45:00Z,29.2533,-90.6633,1012.0,1111122 
LUMCON,ioos:station:LUMCON:101:1,2015-12-02T06:00:00Z,29.2533,-90.6633,1012.0,1111122 
LUMCON,ioos:station:LUMCON:101:1,2015-12-02T06:15:00Z,29.2533,-90.6633,1012.0,1111122 
LUMCON,ioos:station:LUMCON:101:1,2015-12-02T06:30:00Z,29.2533,-90.6633,1012.0,1111122 
LUMCON,ioos:station:LUMCON:101:1,2015-12-02T06:45:00Z,29.2533,-90.6633,1012.0,1111122 
LUMCON,ioos:station:LUMCON:101:1,2015-12-02T07:00:00Z,29.2533,-90.6633,1011.0,1111122 
LUMCON,ioos:station:LUMCON:101:1,2015-12-02T07:15:00Z,29.2533,-90.6633,1012.0,1111122 
LUMCON,ioos:station:LUMCON:101:1,2015-12-02T07:30:00Z,29.2533,-90.6633,1011.0,1111122 
LUMCON,ioos:station:LUMCON:101:1,2015-12-02T07:45:00Z,29.2533,-90.6633,1012.0,1111122 
LUMCON,ioos:station:LUMCON:101:1,2015-12-02T08:00:00Z,29.2533,-90.6633,1012.0,1111122 
LUMCON,ioos:station:LUMCON:101:1,2015-12-02T08:15:00Z,29.2533,-90.6633,1012.0,1111122 
LUMCON,ioos:station:LUMCON:101:1,2015-12-02T08:30:00Z,29.2533,-90.6633,1012.0,1111122 
LUMCON,ioos:station:LUMCON:101:1,2015-12-02T08:45:00Z,29.2533,-90.6633,1013.0,1111122 
LUMCON,ioos:station:LUMCON:101:1,2015-12-02T09:00:00Z,29.2533,-90.6633,1012.0,1111122 
LUMCON,ioos:station:LUMCON:101:1,2015-12-02T09:15:00Z,29.2533,-90.6633,1012.0,1111122 
LUMCON,ioos:station:LUMCON:101:1,2015-12-02T09:30:00Z,29.2533,-90.6633,1012.0,1111122 
LUMCON,ioos:station:LUMCON:101:1,2015-12-02T09:45:00Z,29.2533,-90.6633,1013.0,1111122 
LUMCON,ioos:station:LUMCON:101:1,2015-12-02T10:00:00Z,29.2533,-90.6633,1013.0,1111122 
LUMCON,ioos:station:LUMCON:101:1,2015-12-02T10:15:00Z,29.2533,-90.6633,1013.0,1111122 
LUMCON,ioos:station:LUMCON:101:1,2015-12-02T10:30:00Z,29.2533,-90.6633,1013.0,1111122 
LUMCON,ioos:station:LUMCON:101:1,2015-12-02T10:45:00Z,29.2533,-90.6633,1013.0,1111122 
LUMCON,ioos:station:LUMCON:101:1,2015-12-02T11:00:00Z,29.2533,-90.6633,1014.0,1111122 
LUMCON,ioos:station:LUMCON:101:1,2015-12-02T11:15:00Z,29.2533,-90.6633,1014.0,1111122 
LUMCON,ioos:station:LUMCON:101:1,2015-12-02T11:30:00Z,29.2533,-90.6633,1014.0,1111122 
LUMCON,ioos:station:LUMCON:101:1,2015-12-02T11:45:00Z,29.2533,-90.6633,1014.0,1111122 
LUMCON,ioos:station:LUMCON:101:1,2015-12-02T12:00:00Z,29.2533,-90.6633,1014.0,1111122 
LUMCON,ioos:station:LUMCON:101:1,2015-12-02T12:15:00Z,29.2533,-90.6633,1014.0,1111122 
LUMCON,ioos:station:LUMCON:101:1,2015-12-02T12:30:00Z,29.2533,-90.6633,1014.0,1111122 
LUMCON,ioos:station:LUMCON:101:1,2015-12-02T12:45:00Z,29.2533,-90.6633,1015.0,1111122 
LUMCON,ioos:station:LUMCON:101:1,2015-12-02T13:00:00Z,29.2533,-90.6633,1015.0,1111122 
LUMCON,ioos:station:LUMCON:101:1,2015-12-02T13:15:00Z,29.2533,-90.6633,1015.0,1111122 
LUMCON,ioos:station:LUMCON:101:1,2015-12-02T13:30:00Z,29.2533,-90.6633,1015.0,1111122 
LUMCON,ioos:station:LUMCON:101:1,2015-12-02T13:45:00Z,29.2533,-90.6633,1015.0,1111122 
LUMCON,ioos:station:LUMCON:101:1,2015-12-02T14:00:00Z,29.2533,-90.6633,1015.0,1111122 
LUMCON,ioos:station:LUMCON:101:1,2015-12-02T14:15:00Z,29.2533,-90.6633,1016.0,1111122 
LUMCON,ioos:station:LUMCON:101:1,2015-12-02T14:30:00Z,29.2533,-90.6633,1016.0,1111122 
LUMCON,ioos:station:LUMCON:101:1,2015-12-02T14:45:00Z,29.2533,-90.6633,1015.0,1111122 
LUMCON,ioos:station:LUMCON:101:1,2015-12-02T15:00:00Z,29.2533,-90.6633,1016.0,1111122 
LUMCON,ioos:station:LUMCON:101:1,2015-12-02T15:15:00Z,29.2533,-90.6633,1016.0,1111122 
LUMCON,ioos:station:LUMCON:101:1,2015-12-02T15:30:00Z,29.2533,-90.6633,1016.0,1111122 
LUMCON,ioos:station:LUMCON:101:1,2015-12-02T15:45:00Z,29.2533,-90.6633,1016.0,1111122 
LUMCON,ioos:station:LUMCON:101:1,2015-12-02T16:00:00Z,29.2533,-90.6633,1016.0,1111122 
LUMCON,ioos:station:LUMCON:101:1,2015-12-02T16:15:00Z,29.2533,-90.6633,1016.0,1111122 
LUMCON,ioos:station:LUMCON:101:1,2015-12-02T16:30:00Z,29.2533,-90.6633,1016.0,1111122 
LUMCON,ioos:station:LUMCON:101:1,2015-12-02T16:45:00Z,29.2533,-90.6633,1015.0,1111122 
LUMCON,ioos:station:LUMCON:101:1,2015-12-02T17:00:00Z,29.2533,-90.6633,1016.0,1111122 
LUMCON,ioos:station:LUMCON:101:1,2015-12-02T17:15:00Z,29.2533,-90.6633,1015.0,1111122 
LUMCON,ioos:station:LUMCON:101:1,2015-12-02T17:30:00Z,29.2533,-90.6633,1015.0,1111122 
LUMCON,ioos:station:LUMCON:101:1,2015-12-02T17:45:00Z,29.2533,-90.6633,1015.0,1111122 
LUMCON,ioos:station:LUMCON:101:1,2015-12-02T18:00:00Z,29.2533,-90.6633,1016.0,1111122 
LUMCON,ioos:station:LUMCON:101:1,2015-12-02T18:15:00Z,29.2533,-90.6633,1016.0,1111122 
LUMCON,ioos:station:LUMCON:101:1,2015-12-02T18:30:00Z,29.2533,-90.6633,1016.0,1111122 
LUMCON,ioos:station:LUMCON:101:1,2015-12-02T18:45:00Z,29.2533,-90.6633,1015.0,1111122 
LUMCON,ioos:station:LUMCON:101:1,2015-12-02T19:00:00Z,29.2533,-90.6633,1015.0,1111122 
LUMCON,ioos:station:LUMCON:101:1,2015-12-02T19:15:00Z,29.2533,-90.6633,1015.0,1111122 
LUMCON,ioos:station:LUMCON:101:1,2015-12-02T19:30:00Z,29.2533,-90.6633,1015.0,1111122 
LUMCON,ioos:station:LUMCON:101:1,2015-12-02T19:45:00Z,29.2533,-90.6633,1015.0,1111122 
LUMCON,ioos:station:LUMCON:101:1,2015-12-02T20:00:00Z,29.2533,-90.6633,1015.0,1111122 
LUMCON,ioos:station:LUMCON:101:1,2015-12-02T20:15:00Z,29.2533,-90.6633,1015.0,1111122 
LUMCON,ioos:station:LUMCON:101:1,2015-12-02T20:30:00Z,29.2533,-90.6633,1016.0,1111122 
LUMCON,ioos:station:LUMCON:101:1,2015-12-02T20:45:00Z,29.2533,-90.6633,1016.0,1111122 
LUMCON,ioos:station:LUMCON:101:1,2015-12-02T21:00:00Z,29.2533,-90.6633,1016.0,1111122 
LUMCON,ioos:station:LUMCON:101:1,2015-12-02T21:15:00Z,29.2533,-90.6633,1016.0,1111122 
LUMCON,ioos:station:LUMCON:101:1,2015-12-02T21:30:00Z,29.2533,-90.6633,1016.0,1111122 
LUMCON,ioos:station:LUMCON:101:1,2015-12-02T21:45:00Z,29.2533,-90.6633,1017.0,1111122 
LUMCON,ioos:station:LUMCON:101:1,2015-12-02T22:00:00Z,29.2533,-90.6633,1017.0,1111122 
LUMCON,ioos:station:LUMCON:101:1,2015-12-02T22:15:00Z,29.2533,-90.6633,1017.0,1111122 
LUMCON,ioos:station:LUMCON:101:1,2015-12-02T22:30:00Z,29.2533,-90.6633,1017.0,1111122 
LUMCON,ioos:station:LUMCON:101:1,2015-12-02T22:45:00Z,29.2533,-90.6633,1017.0,1111122 
LUMCON,ioos:station:LUMCON:101:1,2015-12-02T23:00:00Z,29.2533,-90.6633,1017.0,1111122 
LUMCON,ioos:station:LUMCON:101:1,2015-12-02T23:15:00Z,29.2533,-90.6633,1017.0,1111122 
LUMCON,ioos:station:LUMCON:101:1,2015-12-02T23:30:00Z,29.2533,-90.6633,1018.0,1111122 
LUMCON,ioos:station:LUMCON:101:1,2015-12-02T23:45:00Z,29.2533,-90.6633,1018.0,1111122 
LUMCON,ioos:station:LUMCON:101:1,2015-12-03T05:00:00Z,29.2533,-90.6633,1020.0,1111122 
LUMCON,ioos:station:LUMCON:101:1,2015-12-03T05:15:00Z,29.2533,-90.6633,1020.0,1111122 
LUMCON,ioos:station:LUMCON:101:1,2015-12-03T05:30:00Z,29.2533,-90.6633,1020.0,1111122 
LUMCON,ioos:station:LUMCON:101:1,2015-12-03T05:45:00Z,29.2533,-90.6633,1020.0,1111122 
LUMCON,ioos:station:LUMCON:101:1,2015-12-03T06:00:00Z,29.2533,-90.6633,1020.0,1111122 
LUMCON,ioos:station:LUMCON:101:1,2015-12-03T06:15:00Z,29.2533,-90.6633,1020.0,1111122 
LUMCON,ioos:station:LUMCON:101:1,2015-12-03T06:30:00Z,29.2533,-90.6633,1020.0,1111122 
LUMCON,ioos:station:LUMCON:101:1,2015-12-03T06:45:00Z,29.2533,-90.6633,1020.0,1111122 
LUMCON,ioos:station:LUMCON:101:1,2015-12-03T07:00:00Z,29.2533,-90.6633,1020.0,1111122 
LUMCON,ioos:station:LUMCON:101:1,2015-12-03T07:15:00Z,29.2533,-90.6633,1020.0,1111122 
LUMCON,ioos:station:LUMCON:101:1,2015-12-03T07:30:00Z,29.2533,-90.6633,1020.0,1111122 
LUMCON,ioos:station:LUMCON:101:1,2015-12-03T07:45:00Z,29.2533,-90.6633,1021.0,1111122 
LUMCON,ioos:station:LUMCON:101:1,2015-12-03T08:00:00Z,29.2533,-90.6633,1021.0,1111122 
LUMCON,ioos:station:LUMCON:101:1,2015-12-03T08:15:00Z,29.2533,-90.6633,1020.0,1111122 
LUMCON,ioos:station:LUMCON:101:1,2015-12-03T08:30:00Z,29.2533,-90.6633,1021.0,1111122 
LUMCON,ioos:station:LUMCON:101:1,2015-12-03T08:45:00Z,29.2533,-90.6633,1021.0,1111122 
LUMCON,ioos:station:LUMCON:101:1,2015-12-03T09:00:00Z,29.2533,-90.6633,1021.0,1111122 
LUMCON,ioos:station:LUMCON:101:1,2015-12-03T09:15:00Z,29.2533,-90.6633,1021.0,1111122 
LUMCON,ioos:station:LUMCON:101:1,2015-12-03T09:30:00Z,29.2533,-90.6633,1021.0,1111122 
LUMCON,ioos:station:LUMCON:101:1,2015-12-03T09:45:00Z,29.2533,-90.6633,1022.0,1111122 
LUMCON,ioos:station:LUMCON:101:1,2015-12-03T10:00:00Z,29.2533,-90.6633,1021.0,1111122 
LUMCON,ioos:station:LUMCON:101:1,2015-12-03T10:15:00Z,29.2533,-90.6633,1022.0,1111122 
LUMCON,ioos:station:LUMCON:101:1,2015-12-03T10:30:00Z,29.2533,-90.6633,1022.0,1111122 
LUMCON,ioos:station:LUMCON:101:1,2015-12-03T10:45:00Z,29.2533,-90.6633,1022.0,1111122 
LUMCON,ioos:station:LUMCON:101:1,2015-12-03T11:00:00Z,29.2533,-90.6633,1022.0,1111122 
LUMCON,ioos:station:LUMCON:101:1,2015-12-03T11:15:00Z,29.2533,-90.6633,1022.0,1111122 
LUMCON,ioos:station:LUMCON:101:1,2015-12-03T11:30:00Z,29.2533,-90.6633,1023.0,1111122 
LUMCON,ioos:station:LUMCON:101:1,2015-12-03T11:45:00Z,29.2533,-90.6633,1023.0,1111122 
LUMCON,ioos:station:LUMCON:101:1,2015-12-03T12:00:00Z,29.2533,-90.6633,1023.0,1111122 
LUMCON,ioos:station:LUMCON:101:1,2015-12-03T12:15:00Z,29.2533,-90.6633,1023.0,1111122 
LUMCON,ioos:station:LUMCON:101:1,2015-12-03T12:30:00Z,29.2533,-90.6633,1023.0,1111122 
LUMCON,ioos:station:LUMCON:101:1,2015-12-03T12:45:00Z,29.2533,-90.6633,1023.0,1111122 
LUMCON,ioos:station:LUMCON:101:1,2015-12-03T13:00:00Z,29.2533,-90.6633,1023.0,1111122 
LUMCON,ioos:station:LUMCON:101:1,2015-12-03T13:15:00Z,29.2533,-90.6633,1023.0,1111122 
LUMCON,ioos:station:LUMCON:101:1,2015-12-03T13:30:00Z,29.2533,-90.6633,1023.0,1111122 
LUMCON,ioos:station:LUMCON:101:1,2015-12-03T13:45:00Z,29.2533,-90.6633,1024.0,1111122 
LUMCON,ioos:station:LUMCON:101:1,2015-12-03T14:00:00Z,29.2533,-90.6633,1024.0,1111122 
LUMCON,ioos:station:LUMCON:101:1,2015-12-03T14:15:00Z,29.2533,-90.6633,1024.0,1111122 
LUMCON,ioos:station:LUMCON:101:1,2015-12-03T14:30:00Z,29.2533,-90.6633,1024.0,1111122 
LUMCON,ioos:station:LUMCON:101:1,2015-12-03T14:45:00Z,29.2533,-90.6633,1024.0,1111122 
LUMCON,ioos:station:LUMCON:101:1,2015-12-03T15:00:00Z,29.2533,-90.6633,1024.0,1111122 
LUMCON,ioos:station:LUMCON:101:1,2015-12-03T15:15:00Z,29.2533,-90.6633,1024.0,1111122 
LUMCON,ioos:station:LUMCON:101:1,2015-12-03T15:30:00Z,29.2533,-90.6633,1025.0,1111122 
LUMCON,ioos:station:LUMCON:101:1,2015-12-03T15:45:00Z,29.2533,-90.6633,1024.0,1111122 
LUMCON,ioos:station:LUMCON:101:1,2015-12-03T16:00:00Z,29.2533,-90.6633,1024.0,1111122 
LUMCON,ioos:station:LUMCON:101:1,2015-12-03T16:15:00Z,29.2533,-90.6633,1025.0,1111122 
LUMCON,ioos:station:LUMCON:101:1,2015-12-03T16:30:00Z,29.2533,-90.6633,1025.0,1111122 
LUMCON,ioos:station:LUMCON:101:1,2015-12-03T16:45:00Z,29.2533,-90.6633,1024.0,1111122 
LUMCON,ioos:station:LUMCON:101:1,2015-12-03T17:00:00Z,29.2533,-90.6633,1024.0,1111122 
LUMCON,ioos:station:LUMCON:101:1,2015-12-03T17:15:00Z,29.2533,-90.6633,1024.0,1111122 
LUMCON,ioos:station:LUMCON:101:1,2015-12-03T17:30:00Z,29.2533,-90.6633,1024.0,1111122 
LUMCON,ioos:station:LUMCON:101:1,2015-12-03T17:45:00Z,29.2533,-90.6633,1024.0,1111122 
LUMCON,ioos:station:LUMCON:101:1,2015-12-03T18:00:00Z,29.2533,-90.6633,1024.0,1111122 
LUMCON,ioos:station:LUMCON:101:1,2015-12-03T18:15:00Z,29.2533,-90.6633,1024.0,1111122 
LUMCON,ioos:station:LUMCON:101:1,2015-12-03T18:30:00Z,29.2533,-90.6633,1023.0,1111122 
LUMCON,ioos:station:LUMCON:101:1,2015-12-03T18:45:00Z,29.2533,-90.6633,1024.0,1111122 
LUMCON,ioos:station:LUMCON:101:1,2015-12-03T19:00:00Z,29.2533,-90.6633,1024.0,1111122 
LUMCON,ioos:station:LUMCON:101:1,2015-12-03T19:15:00Z,29.2533,-90.6633,1024.0,1111122 
LUMCON,ioos:station:LUMCON:101:1,2015-12-03T19:30:00Z,29.2533,-90.6633,1023.0,1111122 
LUMCON,ioos:station:LUMCON:101:1,2015-12-03T19:45:00Z,29.2533,-90.6633,1023.0,1111122 
LUMCON,ioos:station:LUMCON:101:1,2015-12-03T20:00:00Z,29.2533,-90.6633,1023.0,1111122 
LUMCON,ioos:station:LUMCON:101:1,2015-12-03T20:15:00Z,29.2533,-90.6633,1023.0,1111122 
LUMCON,ioos:station:LUMCON:101:1,2015-12-03T20:30:00Z,29.2533,-90.6633,1024.0,1111122 
LUMCON,ioos:station:LUMCON:101:1,2015-12-03T20:45:00Z,29.2533,-90.6633,1024.0,1111122 
LUMCON,ioos:station:LUMCON:101:1,2015-12-03T21:00:00Z,29.2533,-90.6633,1024.0,1111122 
LUMCON,ioos:station:LUMCON:101:1,2015-12-03T21:15:00Z,29.2533,-90.6633,1024.0,1111122 
LUMCON,ioos:station:LUMCON:101:1,2015-12-03T21:30:00Z,29.2533,-90.6633,1024.0,1111122 
LUMCON,ioos:station:LUMCON:101:1,2015-12-03T21:45:00Z,29.2533,-90.6633,1024.0,1111122 
LUMCON,ioos:station:LUMCON:101:1,2015-12-03T22:00:00Z,29.2533,-90.6633,1024.0,1111122 
LUMCON,ioos:station:LUMCON:101:1,2015-12-03T22:15:00Z,29.2533,-90.6633,1024.0,1111122 
LUMCON,ioos:station:LUMCON:101:1,2015-12-03T22:30:00Z,29.2533,-90.6633,1024.0,1111122 
LUMCON,ioos:station:LUMCON:101:1,2015-12-03T22:45:00Z,29.2533,-90.6633,1024.0,1111122 
LUMCON,ioos:station:LUMCON:101:1,2015-12-03T23:00:00Z,29.2533,-90.6633,1025.0,1111122 
LUMCON,ioos:station:LUMCON:101:1,2015-12-03T23:15:00Z,29.2533,-90.6633,1025.0,1111122 
LUMCON,ioos:station:LUMCON:101:1,2015-12-03T23:30:00Z,29.2533,-90.6633,1025.0,1111122 
LUMCON,ioos:station:LUMCON:101:1,2015-12-03T23:45:00Z,29.2533,-90.6633,1025.0,1111122 
LUMCON,ioos:station:LUMCON:101:1,2015-12-04T05:00:00Z,29.2533,-90.6633,1026.0,1111122 
LUMCON,ioos:station:LUMCON:101:1,2015-12-04T05:15:00Z,29.2533,-90.6633,1026.0,1111122 
LUMCON,ioos:station:LUMCON:101:1,2015-12-04T05:30:00Z,29.2533,-90.6633,1026.0,1111122 
LUMCON,ioos:station:LUMCON:101:1,2015-12-04T05:45:00Z,29.2533,-90.6633,1026.0,1111122 
LUMCON,ioos:station:LUMCON:101:1,2015-12-04T06:00:00Z,29.2533,-90.6633,1026.0,1111122 
LUMCON,ioos:station:LUMCON:101:1,2015-12-04T06:15:00Z,29.2533,-90.6633,1026.0,1111122 
LUMCON,ioos:station:LUMCON:101:1,2015-12-04T06:30:00Z,29.2533,-90.6633,1026.0,1111122 
LUMCON,ioos:station:LUMCON:101:1,2015-12-04T06:45:00Z,29.2533,-90.6633,1026.0,1111122 
LUMCON,ioos:station:LUMCON:101:1,2015-12-04T07:00:00Z,29.2533,-90.6633,1026.0,1111122 
LUMCON,ioos:station:LUMCON:101:1,2015-12-04T07:15:00Z,29.2533,-90.6633,1026.0,1111122 
LUMCON,ioos:station:LUMCON:101:1,2015-12-04T07:30:00Z,29.2533,-90.6633,1026.0,1111122 
LUMCON,ioos:station:LUMCON:101:1,2015-12-04T07:45:00Z,29.2533,-90.6633,1026.0,1111122 
LUMCON,ioos:station:LUMCON:101:1,2015-12-04T08:00:00Z,29.2533,-90.6633,1026.0,1111122 
LUMCON,ioos:station:LUMCON:101:1,2015-12-04T08:15:00Z,29.2533,-90.6633,1026.0,1111122 
LUMCON,ioos:station:LUMCON:101:1,2015-12-04T08:30:00Z,29.2533,-90.6633,1026.0,1111122 
LUMCON,ioos:station:LUMCON:101:1,2015-12-04T08:45:00Z,29.2533,-90.6633,1026.0,1111122 
LUMCON,ioos:station:LUMCON:101:1,2015-12-04T09:00:00Z,29.2533,-90.6633,1026.0,1111122 
LUMCON,ioos:station:LUMCON:101:1,2015-12-04T09:15:00Z,29.2533,-90.6633,1026.0,1111122 
LUMCON,ioos:station:LUMCON:101:1,2015-12-04T09:30:00Z,29.2533,-90.6633,1026.0,1111122 
LUMCON,ioos:station:LUMCON:101:1,2015-12-04T09:45:00Z,29.2533,-90.6633,1026.0,1111122 
LUMCON,ioos:station:LUMCON:101:1,2015-12-04T10:00:00Z,29.2533,-90.6633,1026.0,1111122 
LUMCON,ioos:station:LUMCON:101:1,2015-12-04T10:15:00Z,29.2533,-90.6633,1027.0,1111122 
LUMCON,ioos:station:LUMCON:101:1,2015-12-04T10:30:00Z,29.2533,-90.6633,1027.0,1111122 
LUMCON,ioos:station:LUMCON:101:1,2015-12-04T10:45:00Z,29.2533,-90.6633,1027.0,1111122 
LUMCON,ioos:station:LUMCON:101:1,2015-12-04T11:00:00Z,29.2533,-90.6633,1027.0,1111122 
LUMCON,ioos:station:LUMCON:101:1,2015-12-04T11:15:00Z,29.2533,-90.6633,1027.0,1111122 
LUMCON,ioos:station:LUMCON:101:1,2015-12-04T11:30:00Z,29.2533,-90.6633,1027.0,1111122 
LUMCON,ioos:station:LUMCON:101:1,2015-12-04T11:45:00Z,29.2533,-90.6633,1027.0,1111122 
LUMCON,ioos:station:LUMCON:101:1,2015-12-04T12:00:00Z,29.2533,-90.6633,1027.0,1111122 
LUMCON,ioos:station:LUMCON:101:1,2015-12-04T12:15:00Z,29.2533,-90.6633,1027.0,1111122 
LUMCON,ioos:station:LUMCON:101:1,2015-12-04T12:30:00Z,29.2533,-90.6633,1028.0,1111122 
LUMCON,ioos:station:LUMCON:101:1,2015-12-04T12:45:00Z,29.2533,-90.6633,1028.0,1111122 
LUMCON,ioos:station:LUMCON:101:1,2015-12-04T13:00:00Z,29.2533,-90.6633,1028.0,1111122 
LUMCON,ioos:station:LUMCON:101:1,2015-12-04T13:15:00Z,29.2533,-90.6633,1028.0,1111122 
LUMCON,ioos:station:LUMCON:101:1,2015-12-04T13:30:00Z,29.2533,-90.6633,1028.0,1111122 
LUMCON,ioos:station:LUMCON:101:1,2015-12-04T13:45:00Z,29.2533,-90.6633,1028.0,1111122 
LUMCON,ioos:station:LUMCON:101:1,2015-12-04T14:00:00Z,29.2533,-90.6633,1029.0,1111122 
LUMCON,ioos:station:LUMCON:101:1,2015-12-04T14:15:00Z,29.2533,-90.6633,1029.0,1111122 
LUMCON,ioos:station:LUMCON:101:1,2015-12-04T14:30:00Z,29.2533,-90.6633,1029.0,1111122 
LUMCON,ioos:station:LUMCON:101:1,2015-12-04T14:45:00Z,29.2533,-90.6633,1028.0,1111122 
LUMCON,ioos:station:LUMCON:101:1,2015-12-04T15:00:00Z,29.2533,-90.6633,1029.0,1111122 
LUMCON,ioos:station:LUMCON:101:1,2015-12-04T15:15:00Z,29.2533,-90.6633,1029.0,1111122 
LUMCON,ioos:station:LUMCON:101:1,2015-12-04T15:30:00Z,29.2533,-90.6633,1029.0,1111122 
LUMCON,ioos:station:LUMCON:101:1,2015-12-04T15:45:00Z,29.2533,-90.6633,1028.0,1111122 
LUMCON,ioos:station:LUMCON:101:1,2015-12-04T16:00:00Z,29.2533,-90.6633,1028.0,1111122 
LUMCON,ioos:station:LUMCON:101:1,2015-12-04T16:15:00Z,29.2533,-90.6633,1028.0,1111122 
LUMCON,ioos:station:LUMCON:101:1,2015-12-04T16:30:00Z,29.2533,-90.6633,1028.0,1111122 